Location: Archemont
(49.1579°N, 1.7598°E)
Time: 21:05:54
(UTC+00:00)

S3M - Pass Details

Date: 03 February 2023
Orbit: 948 x 1005 km, 83.0° (Epoch: 21 March)

Event Time Altitude Azimuth Distance (km) Brightness Sun altitude
Rises 18:28:47 0° 164° (SSE) 3,719 6.9 -15.9°
Reaches altitude 10° 18:31:25 10° 157° (SSE) 2,774 6.2 -16.3°
Maximum altitude 18:37:21 43° 89° (E) 1,389 4.3 -17.3°
Drops below altitude 10° 18:43:18 10° 21° (NNE) 2,781 6.1 -18.3°
Sets 18:45:57 0° 14° (NNE) 3,728 6.9 -18.7°
